Date,TemperatureHighF,TemperatureAvgF,TemperatureLowF,DewpointHighF,DewpointAvgF,DewpointLowF,HumidityHigh,HumidityAvg,HumidityLow,PressureMaxIn,PressureMinIn,WindSpeedMaxMPH,WindSpeedAvgMPH,GustSpeedMaxMPH,PrecipitationSumIn
2013-4-1,35.7,29.4,21.2,30.0,18.4,14.0,85,64,47,30.17,29.81,11,2,14,0.00
2013-4-2,40.4,28.9,16.7,23.0,17.1,14.0,92,65,37,30.34,30.17,6,1,17,0.00
2013-4-3,45.9,30.9,16.9,22.0,17.3,12.0,92,62,29,30.51,30.33,9,1,9,0.00
2013-4-4,55.5,38.5,20.7,28.0,22.0,18.0,92,57,29,30.41,30.01,6,1,10,0.00
2013-4-5,51.4,39.2,26.6,28.0,22.1,15.0,89,55,27,30.25,30.01,5,1,12,0.00
2013-4-6,57.9,46.4,33.4,41.0,26.1,17.0,70,47,32,30.25,29.72,8,2,14,0.01
2013-4-7,53.6,42.9,29.8,49.0,36.7,28.0,91,79,60,30.07,29.59,14,2,17,0.07
2013-4-8,51.1,39.7,29.2,50.0,37.9,27.0,97,93,83,30.06,29.70,9,1,12,0.49
2013-4-9,46.3,42.2,40.3,46.0,41.5,40.0,98,97,96,30.10,29.92,4,1,8,1.12
2013-4-10,41.2,39.3,37.7,40.0,38.4,37.0,97,96,94,30.09,29.89,7,2,12,0.38
2013-4-11,35.8,35.0,34.4,35.0,34.0,33.0,96,96,95,29.86,29.77,6,2,11,0.37
2013-4-12,40.3,36.3,33.0,38.0,35.0,32.0,98,95,83,29.88,29.68,5,1,9,0.27
2013-4-13,40.5,36.1,34.0,36.0,32.0,28.0,98,85,65,30.10,29.89,7,2,12,0.10
2013-4-14,48.7,37.4,27.9,43.0,34.1,27.0,97,88,75,30.22,29.98,5,1,10,0.08
2013-4-15,65.7,53.5,39.0,56.0,48.4,36.0,97,83,66,30.03,29.93,8,1,10,0.64
2013-4-16,55.3,47.3,40.5,47.0,39.2,33.0,98,76,46,30.37,30.02,6,1,11,0.32
2013-4-17,53.0,44.2,38.6,43.0,37.6,33.0,96,79,55,30.45,30.09,5,1,12,1.17
2013-4-18,62.3,53.9,43.2,61.0,52.7,42.0,98,96,87,30.11,29.53,5,1,15,2.28
2013-4-19,59.5,39.1,32.0,58.0,35.4,29.0,95,86,70,29.87,29.50,14,3,22,0.37
2013-4-20,39.7,32.2,26.3,29.0,22.9,19.0,87,70,51,30.59,29.87,7,2,13,0.06
2013-4-21,52.8,37.3,21.0,31.0,25.5,20.0,95,67,38,30.73,30.54,4,1,11,0.00
2013-4-22,66.2,48.9,31.6,38.0,31.5,27.0,90,56,27,30.55,30.24,7,1,8,0.00
2013-4-23,65.5,50.3,41.9,52.0,43.1,35.0,97,78,53,30.24,29.94,5,1,10,0.56
2013-4-24,48.6,38.4,32.3,40.0,31.9,26.0,96,80,45,30.23,29.97,5,1,11,0.15
2013-4-25,49.6,39.9,31.7,41.0,32.5,28.0,96,77,46,30.45,30.15,6,2,14,0.17
2013-4-26,65.9,47.6,29.0,41.0,33.9,28.0,96,65,36,30.54,30.38,6,1,10,0.00
2013-4-27,73.3,56.7,37.7,46.0,39.6,34.0,93,58,27,30.41,30.17,4,1,9,0.00
2013-4-28,64.1,56.2,45.2,54.0,46.8,38.0,92,71,58,30.17,29.93,4,1,9,0.00
2013-4-29,73.6,60.3,46.3,56.0,51.9,46.0,97,76,48,30.03,29.92,5,1,9,0.01
2013-4-30,79.1,64.8,54.6,62.0,57.3,52.0,96,78,54,30.07,29.95,9,2,15,0.84